[[{"header":{"parameterUnit":"m.s-1","parameterCategory":1,"la1":30.2991,"la2":30.254,"lo1":-89.0895,"lo2":-89.0444,"dy":0.0017,"dx":0.0017,"nx":28,"ny":28,"refTime":"2024-03-22T03:00:00:Z","depth":0,"parameterNumber":2,"parameterNumberName":"U-component_of_WINDS"},"data":[0,0,0,0,0,0,0,0,0,0,0,0,0,0,0,0,0,0,0,0,0,0,0,0,0,0,0,0,0,0,0,0,0,0,0,0,0,0,0,0,0,0,0,0,0,0,0,0,0,0,0,0,0,0,0,0,0,0,-0.3706,-0.3705,0,-0.3611,-0.361,-0.3609,-0.3552,-0.3551,-0.3551,-0.3551,-0.3451,-0.3449,-0.3446,0,0,0,0,0,0,0,0,0,0,0,0,0,-0.3835,-0.3833,-0.3706,-0.3705,-0.3704,-0.3611,-0.361,-0.3608,-0.3552,-0.3551,-0.3551,-0.3551,-0.3452,-0.3449,-0.3446,0,0,0,0,0,0,0,0,0,0,0,0,0,-0.3764,-0.3833,-0.3707,-0.3665,-0.366,-0.3611,-0.3609,-0.3608,-0.3552,-0.3551,-0.3551,-0.3551,-0.3453,-0.3449,-0.3446,-0.3431,0,0,-0.3434,-0.3433,0,0,0,0,0,0,0,0,-0.3768,-0.3759,-0.3672,-0.3667,-0.3662,-0.3593,-0.3618,-0.3548,-0.3552,-0.3593,-0.3551,-0.355,-0.3498,-0.3491,-0.3474,-0.3426,-0.3422,-0.3434,-0.3432,-0.343,-0.3429,0,0,0,0,0,0,0,-0.3773,-0.3763,-0.3668,-0.3671,-0.3665,-0.3649,-0.3638,-0.3605,-0.3549,-0.3589,-0.3585,-0.3574,-0.3495,-0.3477,-0.3471,-0.342,-0.3434,-0.3431,-0.3429,-0.3427,-0.3352,-0.3352,0,0,0,0,0,0,-0.3785,-0.3767,-0.3671,-0.3666,-0.3715,-0.3647,-0.3635,-0.3615,-0.3549,-0.3538,-0.3575,-0.3572,-0.3484,-0.3475,-0.3467,-0.3443,-0.343,-0.3427,-0.3425,-0.3352,-0.3352,-0.3352,0,0,0,0,0,0,-0.3788,-0.3777,-0.3675,-0.3715,-0.3701,-0.3645,-0.3623,-0.3614,-0.3595,-0.3538,-0.3527,-0.3567,-0.3483,-0.3472,-0.344,-0.3439,-0.3425,-0.3422,-0.3351,-0.3352,-0.3352,-0.3397,0,0,0,0,0,0,-0.3792,-0.3778,-0.3774,-0.3715,-0.3699,-0.3651,-0.3623,-0.3612,-0.359,-0.3585,-0.3528,-0.3518,-0.3482,-0.3445,-0.3436,-0.3434,-0.3419,-0.3351,-0.3352,-0.3352,-0.3396,-0.3399,-0.3402,0,0,0,0,0,-0.3797,-0.379,-0.3774,-0.3762,-0.3692,-0.3651,-0.3641,-0.3601,-0.359,-0.3583,-0.3546,-0.352,-0.3441,-0.3442,-0.3431,-0.3428,-0.3351,-0.3351,-0.3352,-0.3394,-0.3398,-0.3402,0,0,0,0,0,0,-0.385,-0.3782,-0.3763,-0.3738,-0.37,-0.3642,-0.3633,-0.3607,-0.3572,-0.3569,-0.3519,-0.3507,-0.3478,-0.345,-0.3453,-0.3409,-0.3393,-0.3391,-0.3429,-0.3432,-0.3435,-0.3443,-0.3416,0,0,0,0,0,-0.3859,-0.3832,-0.3774,-0.3757,-0.3739,-0.3689,-0.367,-0.3641,-0.3601,-0.3585,-0.3545,-0.3506,-0.3471,-0.345,-0.3416,-0.3391,-0.3376,-0.3383,-0.3386,-0.3389,-0.3388,-0.337,-0.3372,-0.3353,-0.3353,-0.3353,0,0,-0.3876,-0.3836,-0.3823,-0.3767,-0.3735,-0.3707,-0.3676,-0.3649,-0.3627,-0.358,-0.3547,-0.3516,-0.3468,-0.3439,-0.3424,-0.3414,-0.339,-0.339,-0.3392,-0.339,-0.3371,-0.3373,-0.3374,-0.3354,-0.3354,-0.3353,0,0,-0.3895,-0.3862,-0.3844,-0.3812,-0.3763,-0.3729,-0.3725,-0.3669,-0.3647,-0.3612,-0.3576,-0.3548,-0.3491,-0.3458,-0.3434,-0.3436,-0.341,-0.3426,-0.3443,-0.3426,-0.3428,-0.3429,-0.3428,-0.3428,-0.3425,-0.3425,-0.3425,0,-0.3923,-0.3881,-0.3837,-0.3811,-0.3787,-0.3742,-0.3722,-0.3693,-0.3635,-0.3619,-0.3609,-0.3534,-0.3499,-0.346,-0.346,-0.3443,-0.3434,-0.3433,-0.3431,-0.3432,-0.3432,-0.343,-0.343,-0.3427,-0.3427,-0.3427,-0.3427,0,-0.3917,-0.3888,-0.3878,-0.3824,-0.3798,-0.3775,-0.3726,-0.3705,-0.3678,-0.3645,-0.3608,-0.3564,-0.3519,-0.3508,-0.3481,-0.3464,-0.3459,-0.3441,-0.3424,-0.3437,-0.3434,-0.3434,-0.3431,-0.343,-0.3429,-0.3429,0,0,-0.3968,-0.3888,-0.3885,-0.3859,-0.3801,-0.3777,-0.375,-0.3706,-0.3688,-0.3649,-0.3624,-0.3575,-0.3557,-0.353,-0.3498,-0.3484,-0.3486,-0.3466,-0.3465,-0.3471,-0.3461,-0.3475,-0.3475,-0.3468,-0.3467,-0.3467,-0.3465,0,-0.3977,-0.3929,-0.3888,-0.3854,-0.3825,-0.3781,-0.3757,-0.3718,-0.3685,-0.3655,-0.3618,-0.3583,-0.3563,-0.3546,-0.3529,-0.3489,-0.3483,-0.3489,-0.3443,-0.3441,-0.3456,-0.3474,-0.349,-0.349,-0.3464,-0.3463,-0.3463,0,-0.3982,-0.3945,-0.3908,-0.385,-0.3837,-0.3817,-0.3771,-0.3743,-0.3696,-0.3673,-0.3641,-0.3608,-0.3576,-0.3561,-0.3515,-0.352,-0.3498,-0.3475,-0.3474,-0.3468,-0.3453,-0.3468,-0.3489,-0.3489,-0.3462,-0.3462,-0.3462,0,-0.4022,-0.3962,-0.3932,-0.391,-0.3843,-0.3829,-0.38,-0.3753,-0.3728,-0.3688,-0.3671,-0.3627,-0.3603,-0.3569,-0.3524,-0.3518,-0.3482,-0.3464,-0.346,-0.3461,-0.3455,-0.3456,-0.3472,-0.3442,-0.3442,-0.3442,-0.3442,0,-0.4036,-0.4015,-0.3948,-0.393,-0.3904,-0.3855,-0.383,-0.3797,-0.3755,-0.3728,-0.3686,-0.3661,-0.3604,-0.3571,-0.3535,-0.3501,-0.3491,-0.347,-0.3461,-0.3473,-0.3476,-0.3459,-0.3457,-0.3442,-0.3442,-0.3442,-0.3442,0,-0.4076,-0.4031,-0.3995,-0.3933,-0.3917,-0.39,-0.3846,-0.3825,-0.3789,-0.3755,-0.3744,-0.3687,-0.3646,-0.3597,-0.3541,-0.3516,-0.3485,-0.3471,-0.3501,-0.3495,-0.3494,-0.3494,-0.3499,-0.3496,-0.3469,-0.3469,-0.347,0,-0.4089,-0.4072,-0.4007,-0.3986,-0.3958,-0.3925,-0.3899,-0.3849,-0.3824,-0.3767,-0.3753,-0.3709,-0.3671,-0.3607,-0.3559,-0.3515,-0.3499,-0.3504,-0.3492,-0.3505,-0.3498,-0.3499,-0.3496,-0.3507,-0.3508,-0.3508,-0.3509,0,-0.4115,-0.4093,-0.4058,-0.4014,-0.3984,-0.3947,-0.3908,-0.3892,-0.3834,-0.3807,-0.3765,-0.3735,-0.3676,-0.3632,-0.3581,-0.3549,-0.3518,-0.3512,-0.3509,-0.3522,-0.3539,-0.3528,-0.3509,-0.3513,-0.3512,-0.3512,-0.3512,-0.3512,-0.4141,-0.4122,-0.4074,-0.4035,-0.4,-0.3964,-0.3941,-0.3901,-0.3865,-0.3814,-0.3786,-0.3744,-0.3694,-0.3622,-0.3591,-0.3555,-0.3545,-0.3541,-0.3539,-0.3539,-0.3542,-0.3545,-0.3546,-0.3546,-0.3546,-0.3546,-0.3545,0,-0.4164,-0.413,-0.4095,-0.4041,-0.401,-0.3984,-0.3939,-0.3914,-0.3877,-0.3834,-0.3797,-0.3747,-0.3703,-0.3651,-0.3603,-0.3585,-0.3569,-0.3574,-0.3574,-0.3567,-0.3555,-0.3562,-0.3587,-0.3587,-0.3587,-0.3587,-0.3587,-0.3587,-0.4172,-0.4139,-0.4111,-0.4059,-0.4024,-0.3983,-0.3959,-0.3924,-0.3889,-0.3835,-0.3799,-0.3765,-0.3717,-0.3665,-0.3623,-0.3608,-0.3592,-0.3601,-0.3582,-0.3572,-0.3568,-0.3565,-0.3571,-0.3598,-0.3598,-0.3597,-0.3597,-0.3597]},{"header":{"parameterUnit":"m.s-1","parameterCategory":1,"la1":30.2991,"la2":30.254,"lo1":-89.0895,"lo2":-89.0444,"dy":0.0017,"dx":0.0017,"nx":28,"ny":28,"refTime":"2024-03-22T03:00:00:Z","depth":0,"parameterNumber":3,"parameterNumberName":"V-component_of_WINDS"},"data":[0,0,0,0,0,0,0,0,0,0,0,0,0,0,0,0,0,0,0,0,0,0,0,0,0,0,0,0,0,0,0,0,0,0,0,0,0,0,0,0,0,0,0,0,0,0,0,0,0,0,0,0,0,0,0,0,0,0,-6.1839,-6.1839,0,-6.1776,-6.1775,-6.1774,-6.1752,-6.1752,-6.1752,-6.1753,-6.1678,-6.1676,-6.1674,0,0,0,0,0,0,0,0,0,0,0,0,0,-6.1935,-6.1933,-6.184,-6.1839,-6.1838,-6.1776,-6.1775,-6.1774,-6.1752,-6.1752,-6.1752,-6.1753,-6.1679,-6.1677,-6.1674,0,0,0,0,0,0,0,0,0,0,0,0,0,-6.1884,-6.1933,-6.184,-6.182,-6.1817,-6.1776,-6.1775,-6.1774,-6.1752,-6.1752,-6.1752,-6.1753,-6.168,-6.1677,-6.1674,-6.1645,0,0,-6.1663,-6.1662,0,0,0,0,0,0,0,0,-6.1887,-6.1881,-6.1823,-6.1821,-6.1818,-6.1772,-6.1781,-6.173,-6.1752,-6.1776,-6.1753,-6.1753,-6.1709,-6.1703,-6.169,-6.1642,-6.1638,-6.1663,-6.1661,-6.166,-6.1659,0,0,0,0,0,0,0,-6.1891,-6.1883,-6.1814,-6.1822,-6.1819,-6.1811,-6.1805,-6.1772,-6.1741,-6.1774,-6.1772,-6.1766,-6.1707,-6.1693,-6.1688,-6.1637,-6.1663,-6.166,-6.1658,-6.1657,-6.1562,-6.1562,0,0,0,0,0,0,-6.1899,-6.1887,-6.1816,-6.1812,-6.1855,-6.1809,-6.1802,-6.1786,-6.1741,-6.1735,-6.1765,-6.1765,-6.1699,-6.1692,-6.1685,-6.1649,-6.166,-6.1657,-6.1655,-6.1563,-6.1562,-6.1561,0,0,0,0,0,0,-6.1901,-6.1893,-6.1819,-6.1849,-6.1839,-6.1807,-6.179,-6.1785,-6.1771,-6.1735,-6.1728,-6.1757,-6.1699,-6.169,-6.1656,-6.1646,-6.1655,-6.1652,-6.1563,-6.1562,-6.1562,-6.1576,0,0,0,0,0,0,-6.1904,-6.1894,-6.1884,-6.1849,-6.1837,-6.1792,-6.179,-6.1783,-6.1766,-6.1765,-6.1725,-6.1719,-6.1698,-6.1661,-6.1653,-6.1642,-6.1649,-6.1564,-6.1563,-6.1562,-6.1576,-6.1576,-6.1575,0,0,0,0,0,-6.1907,-6.1889,-6.1884,-6.1875,-6.1825,-6.1792,-6.1785,-6.1764,-6.1766,-6.1755,-6.1731,-6.172,-6.1649,-6.1658,-6.1648,-6.1636,-6.1564,-6.1563,-6.1562,-6.1576,-6.1576,-6.1575,0,0,0,0,0,0,-6.192,-6.1884,-6.1878,-6.1848,-6.1824,-6.1788,-6.1774,-6.1764,-6.1737,-6.1737,-6.171,-6.1701,-6.1669,-6.1649,-6.1659,-6.1606,-6.1606,-6.1603,-6.162,-6.1619,-6.1619,-6.1623,-6.1647,0,0,0,0,0,-6.192,-6.1899,-6.1867,-6.1843,-6.1832,-6.1805,-6.179,-6.1777,-6.1749,-6.1738,-6.1712,-6.1683,-6.1655,-6.1636,-6.1607,-6.1574,-6.1564,-6.1561,-6.156,-6.156,-6.1557,-6.1537,-6.1535,-6.1558,-6.1558,-6.1558,0,0,-6.1918,-6.1896,-6.1883,-6.1845,-6.1825,-6.1801,-6.1796,-6.1771,-6.1752,-6.1733,-6.17,-6.168,-6.1646,-6.1613,-6.1596,-6.1595,-6.1549,-6.1559,-6.1559,-6.1556,-6.1536,-6.1534,-6.1532,-6.1557,-6.1557,-6.1557,0,0,-6.1903,-6.1885,-6.1863,-6.1844,-6.1815,-6.1797,-6.1792,-6.1759,-6.1746,-6.1713,-6.1698,-6.1674,-6.1625,-6.1602,-6.1584,-6.1562,-6.155,-6.1554,-6.1551,-6.1532,-6.153,-6.1528,-6.152,-6.1517,-6.1551,-6.1551,-6.1551,0,-6.1904,-6.187,-6.1853,-6.1829,-6.1812,-6.1797,-6.1774,-6.1755,-6.1717,-6.1704,-6.1704,-6.1644,-6.162,-6.158,-6.1576,-6.1561,-6.1553,-6.1557,-6.1532,-6.153,-6.1528,-6.152,-6.1517,-6.1552,-6.1552,-6.1551,-6.1551,0,-6.1872,-6.1849,-6.1835,-6.1802,-6.1784,-6.176,-6.1737,-6.172,-6.1709,-6.1691,-6.1657,-6.1629,-6.1594,-6.1584,-6.1571,-6.1543,-6.1543,-6.1538,-6.1537,-6.1527,-6.1519,-6.1515,-6.1552,-6.1552,-6.1552,-6.1552,0,0,-6.1861,-6.1821,-6.1816,-6.1801,-6.1768,-6.1749,-6.1724,-6.1694,-6.168,-6.1654,-6.1631,-6.1591,-6.1587,-6.1567,-6.1551,-6.1535,-6.1519,-6.1532,-6.1531,-6.153,-6.1484,-6.1487,-6.1484,-6.1512,-6.1511,-6.1511,-6.1487,0,-6.1841,-6.18,-6.1784,-6.1749,-6.1727,-6.1713,-6.1692,-6.1668,-6.1651,-6.1628,-6.1607,-6.158,-6.1577,-6.1564,-6.1548,-6.1525,-6.1509,-6.1526,-6.1488,-6.1487,-6.1496,-6.148,-6.1482,-6.1461,-6.1483,-6.1483,-6.1482,0,-6.1811,-6.1789,-6.1753,-6.1724,-6.1714,-6.1696,-6.1667,-6.1646,-6.1618,-6.1607,-6.1585,-6.1571,-6.1543,-6.1546,-6.1505,-6.1517,-6.1501,-6.1487,-6.1486,-6.148,-6.1483,-6.1472,-6.1454,-6.1451,-6.1477,-6.1478,-6.1478,0,-6.1806,-6.1767,-6.174,-6.1728,-6.1694,-6.1681,-6.1666,-6.1639,-6.1622,-6.1596,-6.1584,-6.1554,-6.1537,-6.1513,-6.1491,-6.1495,-6.1452,-6.1453,-6.144,-6.1441,-6.143,-6.1431,-6.1408,-6.1422,-6.1422,-6.1422,-6.1422,0,-6.1784,-6.1762,-6.1738,-6.1721,-6.1696,-6.1678,-6.1652,-6.1636,-6.1612,-6.1591,-6.1576,-6.1555,-6.1528,-6.1503,-6.1486,-6.1454,-6.1447,-6.1435,-6.143,-6.1436,-6.1437,-6.1423,-6.1423,-6.1421,-6.1421,-6.1422,-6.1422,0,-6.1773,-6.1756,-6.1726,-6.1698,-6.169,-6.1672,-6.1647,-6.1629,-6.1613,-6.1585,-6.1578,-6.155,-6.1521,-6.1497,-6.1457,-6.1445,-6.1412,-6.1407,-6.1422,-6.1419,-6.1407,-6.1408,-6.1373,-6.1367,-6.1387,-6.1387,-6.1387,0,-6.1759,-6.1743,-6.1714,-6.17,-6.1686,-6.1663,-6.1647,-6.1628,-6.1611,-6.158,-6.1565,-6.1536,-6.1511,-6.1463,-6.1438,-6.1408,-6.1401,-6.1391,-6.1396,-6.1402,-6.1399,-6.14,-6.1398,-6.139,-6.139,-6.139,-6.139,0,-6.1737,-6.173,-6.1708,-6.1685,-6.1666,-6.1646,-6.1624,-6.1613,-6.159,-6.1571,-6.1543,-6.1524,-6.1485,-6.1455,-6.1422,-6.1403,-6.1391,-6.1389,-6.1384,-6.1388,-6.1397,-6.1391,-6.1419,-6.1389,-6.1389,-6.1389,-6.1389,-6.1389,-6.1723,-6.1708,-6.1686,-6.1662,-6.1645,-6.1626,-6.1609,-6.1592,-6.1569,-6.1538,-6.1528,-6.1498,-6.147,-6.1426,-6.1407,-6.1382,-6.1381,-6.1374,-6.1372,-6.137,-6.137,-6.1404,-6.1376,-6.1376,-6.1376,-6.1376,-6.1376,0,-6.1699,-6.1685,-6.1664,-6.1636,-6.1618,-6.1613,-6.159,-6.1573,-6.1549,-6.1526,-6.1503,-6.147,-6.1441,-6.1415,-6.1384,-6.1368,-6.1362,-6.1361,-6.1361,-6.1356,-6.1374,-6.1381,-6.1366,-6.1366,-6.1366,-6.1366,-6.1366,-6.1366,-6.1684,-6.1658,-6.1649,-6.1614,-6.1599,-6.1573,-6.156,-6.1542,-6.1524,-6.1489,-6.1466,-6.1451,-6.1426,-6.1393,-6.1366,-6.1359,-6.1347,-6.1347,-6.1338,-6.1354,-6.1355,-6.1356,-6.1363,-6.1345,-6.1345,-6.1323,-6.1322,-6.1322]}]]